QFA153 LIMC-LIRF

Flight info

Callsign QFA153
Flight time 0h 53m
Altitude 31000
Route ROBAS DCT TINKU DCT XIBIL
Aircraft B738/M-SDE2E3FGHIRWXY/LB1

Departure

Time 2026-05-05 12:58
Airport Milan Malpensa International Airport (LIMC)

Arrival

Time 2026-05-05 13:52
Airport Rome–Fiumicino Leonardo da Vinci International Airport (LIRF)
Time Latitude Longitude Altitude Speed Heading
2026-05-05 12:15 45.62419 8.71776 730 ft 0 kts 324°
2026-05-05 12:38 45.62413 8.71782 729 ft 2 kts 324°
2026-05-05 12:39 45.62406 8.71790 729 ft 2 kts 324°
2026-05-05 12:39 45.62396 8.71806 729 ft 2 kts 297°
2026-05-05 12:39 45.62391 8.71826 728 ft 2 kts 277°
2026-05-05 12:39 45.62391 8.71847 728 ft 2 kts 255°
2026-05-05 12:40 45.62397 8.71866 728 ft 2 kts 234°
2026-05-05 12:40 45.62407 8.71882 728 ft 2 kts 213°
2026-05-05 12:40 45.62421 8.71890 728 ft 2 kts 192°
2026-05-05 12:40 45.62435 8.71892 729 ft 1 kts 172°
2026-05-05 12:41 45.62441 8.71890 729 ft 1 kts 167°
2026-05-05 12:41 45.62442 8.71889 729 ft 0 kts 168°
2026-05-05 12:45 45.62420 8.71896 728 ft 7 kts 168°
2026-05-05 12:45 45.62369 8.71911 728 ft 7 kts 169°
2026-05-05 12:45 45.62308 8.71927 727 ft 9 kts 170°
2026-05-05 12:46 45.62236 8.71946 725 ft 11 kts 168°
2026-05-05 12:46 45.62186 8.72022 724 ft 11 kts 91°
2026-05-05 12:46 45.62183 8.72132 723 ft 11 kts 116°
2026-05-05 12:46 45.62111 8.72179 721 ft 12 kts 167°
2026-05-05 12:47 45.62017 8.72208 719 ft 16 kts 169°
2026-05-05 12:47 45.61890 8.72242 715 ft 20 kts 169°
2026-05-05 12:47 45.61750 8.72281 713 ft 21 kts 169°
2026-05-05 12:47 45.61604 8.72321 709 ft 20 kts 169°
2026-05-05 12:48 45.61477 8.72356 705 ft 17 kts 169°
2026-05-05 12:48 45.61373 8.72436 703 ft 17 kts 132°
2026-05-05 12:48 45.61278 8.72518 701 ft 15 kts 166°
2026-05-05 12:48 45.61165 8.72554 698 ft 16 kts 171°
2026-05-05 12:49 45.61080 8.72630 697 ft 13 kts 102°
2026-05-05 12:49 45.61092 8.72764 696 ft 14 kts 79°
2026-05-05 12:49 45.61114 8.72912 696 ft 15 kts 78°
2026-05-05 12:49 45.61146 8.73057 695 ft 15 kts 45°
2026-05-05 12:50 45.61228 8.73141 696 ft 13 kts 33°
2026-05-05 12:50 45.61306 8.73215 697 ft 13 kts 34°
2026-05-05 12:50 45.61392 8.73268 698 ft 13 kts
2026-05-05 12:50 45.61483 8.73248 699 ft 14 kts 348°
2026-05-05 12:51 45.61578 8.73228 701 ft 12 kts 11°
2026-05-05 12:51 45.61624 8.73311 701 ft 11 kts 75°
2026-05-05 12:51 45.61633 8.73425 701 ft 12 kts 104°
2026-05-05 12:51 45.61595 8.73535 699 ft 12 kts 112°
2026-05-05 12:52 45.61588 8.73589 699 ft 0 kts 90°
2026-05-05 12:56 45.61588 8.73590 699 ft 0 kts 90°
2026-05-05 12:56 45.61591 8.73639 699 ft 10 kts 81°
2026-05-05 12:56 45.61633 8.73721 699 ft 9 kts 15°
2026-05-05 12:56 45.61668 8.73724 699 ft 0 kts 354°
2026-05-05 12:57 45.61758 8.73702 701 ft 41 kts 349°
2026-05-05 12:57 45.62244 8.73567 712 ft 100 kts 349°
2026-05-05 12:58 45.63102 8.73326 732 ft 148 kts 348°
2026-05-05 12:58 45.64214 8.72983 907 ft 172 kts 346°
2026-05-05 12:58 45.65341 8.72562 1303 ft 168 kts 350°
2026-05-05 12:58 45.66509 8.72437 1757 ft 170 kts
2026-05-05 12:59 45.67690 8.72622 2211 ft 172 kts
2026-05-05 12:59 45.68892 8.72731 2595 ft 175 kts 359°
2026-05-05 12:59 45.70152 8.72638 2982 ft 185 kts 358°
2026-05-05 13:00 45.72800 8.72958 3725 ft 198 kts 27°
2026-05-05 13:00 45.73837 8.74206 4097 ft 204 kts 59°
2026-05-05 13:01 45.74557 8.80147 5237 ft 214 kts 98°
2026-05-05 13:01 45.74176 8.82266 5610 ft 228 kts 110°
2026-05-05 13:01 45.73634 8.84407 5974 ft 228 kts 111°
2026-05-05 13:01 45.72997 8.86460 6350 ft 228 kts 124°
2026-05-05 13:02 45.71930 8.88126 6734 ft 229 kts 143°
2026-05-05 13:02 45.70565 8.89314 7112 ft 230 kts 155°
2026-05-05 13:02 45.69014 8.90088 7504 ft 247 kts 169°
2026-05-05 13:02 45.67260 8.90358 7906 ft 264 kts 177°
2026-05-05 13:03 45.65400 8.90449 8354 ft 269 kts 178°
2026-05-05 13:03 45.63519 8.90539 8801 ft 271 kts 177°
2026-05-05 13:03 45.61647 8.90665 9245 ft 272 kts 177°
2026-05-05 13:03 45.59758 8.90819 9688 ft 272 kts 177°
2026-05-05 13:04 45.57874 8.91008 10131 ft 274 kts 176°
2026-05-05 13:04 45.55956 8.91226 10577 ft 277 kts 176°
2026-05-05 13:04 45.54014 8.91450 11025 ft 279 kts 176°
2026-05-05 13:04 45.52114 8.91900 11463 ft 284 kts 165°
2026-05-05 13:05 45.50337 8.93193 11908 ft 291 kts 144°
2026-05-05 13:05 45.48936 8.95363 12310 ft 309 kts 127°
2026-05-05 13:05 45.47810 8.98077 12672 ft 326 kts 122°
2026-05-05 13:05 45.46719 9.00973 13008 ft 342 kts 121°
2026-05-05 13:06 45.45586 9.04029 13331 ft 358 kts 121°
2026-05-05 13:06 45.44384 9.07258 13675 ft 373 kts 121°
2026-05-05 13:06 45.43139 9.10575 13991 ft 388 kts 121°
2026-05-05 13:06 45.41862 9.13960 14566 ft 395 kts 122°
2026-05-05 13:07 45.40559 9.17400 15199 ft 400 kts 122°
2026-05-05 13:07 45.39234 9.20887 15848 ft 404 kts 122°
2026-05-05 13:07 45.37888 9.24427 16480 ft 409 kts 122°
2026-05-05 13:07 45.36543 9.27952 17097 ft 413 kts 122°
2026-05-05 13:08 45.35161 9.31570 17717 ft 417 kts 122°
2026-05-05 13:08 45.33778 9.35188 18360 ft 420 kts 122°
2026-05-05 13:08 45.32372 9.38859 18955 ft 424 kts 122°
2026-05-05 13:08 45.30964 9.42530 19514 ft 429 kts 122°
2026-05-05 13:09 45.29543 9.46228 20128 ft 432 kts 122°
2026-05-05 13:09 45.28083 9.50017 20659 ft 436 kts 122°
2026-05-05 13:09 45.26631 9.53784 21237 ft 439 kts 122°
2026-05-05 13:09 45.25173 9.57562 21751 ft 443 kts 122°
2026-05-05 13:10 45.23684 9.61417 22296 ft 446 kts 122°
2026-05-05 13:10 45.22161 9.65203 22825 ft 448 kts 126°
2026-05-05 13:10 45.20405 9.68820 23340 ft 446 kts 133°
2026-05-05 13:10 45.18296 9.71987 23822 ft 443 kts 143°
2026-05-05 13:11 45.15831 9.74635 24255 ft 441 kts 152°
2026-05-05 13:11 45.13170 9.76672 24773 ft 439 kts 159°
2026-05-05 13:11 45.10355 9.78420 25162 ft 442 kts 162°
2026-05-05 13:11 45.07514 9.80016 25587 ft 445 kts 163°
2026-05-05 13:12 45.04600 9.81603 25995 ft 448 kts 163°
2026-05-05 13:12 45.01724 9.83167 26419 ft 451 kts 163°
2026-05-05 13:12 44.98771 9.84790 26898 ft 453 kts 163°
2026-05-05 13:12 44.95851 9.86412 27197 ft 459 kts 163°
2026-05-05 13:13 44.92840 9.88101 27594 ft 461 kts 163°
2026-05-05 13:13 44.89891 9.89773 28078 ft 462 kts 162°
2026-05-05 13:13 44.86903 9.91481 28670 ft 460 kts 162°
2026-05-05 13:13 44.83964 9.93169 29244 ft 458 kts 163°
2026-05-05 13:14 44.81030 9.94857 29862 ft 454 kts 163°
2026-05-05 13:14 44.78126 9.96530 30474 ft 450 kts 163°
2026-05-05 13:14 44.75234 9.98194 30937 ft 449 kts 163°
2026-05-05 13:14 44.72338 9.99856 30962 ft 448 kts 163°
2026-05-05 13:15 44.66646 10.03125 30962 ft 443 kts 163°
2026-05-05 13:15 44.60909 10.06406 30965 ft 445 kts 163°
2026-05-05 13:16 44.55211 10.09659 30969 ft 445 kts 163°
2026-05-05 13:16 44.49465 10.12933 30971 ft 444 kts 163°
2026-05-05 13:17 44.43760 10.16178 30966 ft 445 kts 163°
2026-05-05 13:17 44.38050 10.19420 30973 ft 447 kts 163°
2026-05-05 13:18 44.32275 10.22693 30980 ft 446 kts 163°
2026-05-05 13:18 44.26559 10.25926 30987 ft 445 kts 163°
2026-05-05 13:19 44.20815 10.29170 30984 ft 445 kts 163°
2026-05-05 13:19 44.15089 10.32393 30977 ft 444 kts 163°
2026-05-05 13:20 44.09394 10.35591 30976 ft 445 kts 163°
2026-05-05 13:20 44.03624 10.38822 30979 ft 448 kts 163°
2026-05-05 13:21 43.97839 10.42059 30980 ft 446 kts 163°
2026-05-05 13:21 43.92084 10.45272 30986 ft 450 kts 163°
2026-05-05 13:22 43.86290 10.48498 30987 ft 449 kts 163°
2026-05-05 13:22 43.80485 10.51727 30993 ft 449 kts 163°
2026-05-05 13:23 43.74701 10.54908 30989 ft 448 kts 165°
2026-05-05 13:23 43.68851 10.57737 30979 ft 447 kts 167°
2026-05-05 13:24 43.62962 10.60402 30985 ft 447 kts 167°
2026-05-05 13:24 43.57035 10.63078 30979 ft 447 kts 167°
2026-05-05 13:25 43.51105 10.65783 30980 ft 447 kts 167°
2026-05-05 13:25 43.45211 10.68486 30769 ft 450 kts 167°
2026-05-05 13:26 43.42225 10.69857 30373 ft 450 kts 167°
2026-05-05 13:26 43.39295 10.71207 30025 ft 447 kts 167°
2026-05-05 13:26 43.36295 10.72584 29680 ft 455 kts 167°
2026-05-05 13:26 43.33310 10.73953 29328 ft 454 kts 167°
2026-05-05 13:27 43.30307 10.75333 28974 ft 453 kts 167°
2026-05-05 13:27 43.27365 10.76685 28636 ft 453 kts 167°
2026-05-05 13:27 43.24341 10.78071 28285 ft 454 kts 167°
2026-05-05 13:27 43.21365 10.79433 27940 ft 456 kts 167°
2026-05-05 13:28 43.18353 10.80810 27598 ft 457 kts 167°
2026-05-05 13:28 43.15322 10.82194 27256 ft 458 kts 167°
2026-05-05 13:28 43.12304 10.83572 26917 ft 458 kts 166°
2026-05-05 13:28 43.09323 10.84932 26580 ft 459 kts 167°
2026-05-05 13:29 43.06290 10.86314 26241 ft 460 kts 166°
2026-05-05 13:29 43.03234 10.87703 25901 ft 462 kts 166°
2026-05-05 13:29 43.00162 10.89099 25558 ft 463 kts 166°
2026-05-05 13:29 42.97128 10.90477 25223 ft 461 kts 166°
2026-05-05 13:30 42.94127 10.91840 24888 ft 459 kts 166°
2026-05-05 13:30 42.91069 10.93229 24539 ft 457 kts 166°
2026-05-05 13:30 42.88083 10.94583 24198 ft 456 kts 166°
2026-05-05 13:30 42.85060 10.95987 23848 ft 455 kts 163°
2026-05-05 13:31 42.82180 10.97728 23502 ft 457 kts 155°
2026-05-05 13:31 42.79514 11.00050 23161 ft 459 kts 146°
2026-05-05 13:31 42.77130 11.02946 22823 ft 462 kts 136°
2026-05-05 13:31 42.75096 11.06303 22487 ft 463 kts 128°
2026-05-05 13:32 42.73318 11.09953 22151 ft 462 kts 124°
2026-05-05 13:32 42.71675 11.13709 21816 ft 460 kts 122°
2026-05-05 13:32 42.70101 11.17434 21489 ft 458 kts 122°
2026-05-05 13:32 42.68508 11.21182 21156 ft 456 kts 123°
2026-05-05 13:33 42.66912 11.24855 20842 ft 453 kts 123°
2026-05-05 13:33 42.65280 11.28519 20518 ft 450 kts 124°
2026-05-05 13:33 42.63662 11.32071 20185 ft 447 kts 124°
2026-05-05 13:33 42.62028 11.35600 19857 ft 437 kts 125°
2026-05-05 13:34 42.60417 11.39040 19539 ft 427 kts 125°
2026-05-05 13:34 42.58840 11.42377 19223 ft 418 kts 126°
2026-05-05 13:34 42.57277 11.45655 18899 ft 410 kts 127°
2026-05-05 13:34 42.55601 11.48733 18575 ft 405 kts 133°
2026-05-05 13:35 42.53565 11.51335 18253 ft 400 kts 148°
2026-05-05 13:35 42.51183 11.53184 17933 ft 388 kts 160°
2026-05-05 13:35 42.48736 11.54509 17614 ft 377 kts 163°
2026-05-05 13:35 42.46290 11.55671 17294 ft 368 kts 165°
2026-05-05 13:36 42.43899 11.56750 16996 ft 359 kts 166°
2026-05-05 13:36 42.41579 11.57791 16926 ft 344 kts 166°
2026-05-05 13:36 42.39344 11.58806 16828 ft 331 kts 166°
2026-05-05 13:36 42.37202 11.59785 16582 ft 323 kts 166°
2026-05-05 13:37 42.35114 11.60746 16338 ft 317 kts 166°
2026-05-05 13:37 42.33036 11.61706 16093 ft 315 kts 166°
2026-05-05 13:37 42.30956 11.62669 15848 ft 316 kts 166°
2026-05-05 13:37 42.28870 11.63637 15604 ft 314 kts 166°
2026-05-05 13:38 42.26850 11.64579 15358 ft 308 kts 166°
2026-05-05 13:38 42.24844 11.65499 15109 ft 301 kts 167°
2026-05-05 13:38 42.22870 11.66358 14866 ft 294 kts 168°
2026-05-05 13:38 42.20948 11.67175 14622 ft 288 kts 168°
2026-05-05 13:39 42.19037 11.67986 14371 ft 283 kts 168°
2026-05-05 13:39 42.17163 11.68784 14129 ft 282 kts 168°
2026-05-05 13:39 42.15297 11.69580 13890 ft 284 kts 168°
2026-05-05 13:39 42.13414 11.70386 13644 ft 282 kts 168°
2026-05-05 13:40 42.11566 11.71180 13401 ft 281 kts 168°
2026-05-05 13:40 42.09695 11.71987 13194 ft 281 kts 167°
2026-05-05 13:40 42.07917 11.73025 12846 ft 286 kts 153°
2026-05-05 13:40 42.06492 11.74933 12613 ft 290 kts 122°
2026-05-05 13:41 42.05924 11.77461 12387 ft 291 kts 94°
2026-05-05 13:41 42.06107 11.80198 12025 ft 292 kts 78°
2026-05-05 13:41 42.06651 11.82813 11555 ft 295 kts 72°
2026-05-05 13:41 42.07307 11.85403 11079 ft 291 kts 71°
2026-05-05 13:42 42.07964 11.87935 10590 ft 288 kts 71°
2026-05-05 13:42 42.08608 11.90496 10050 ft 286 kts 72°
2026-05-05 13:42 42.09217 11.93001 9516 ft 285 kts 72°
2026-05-05 13:42 42.09826 11.95546 8981 ft 282 kts 72°
2026-05-05 13:43 42.10417 11.98033 8445 ft 278 kts 72°
2026-05-05 13:43 42.10986 12.00462 7908 ft 271 kts 75°
2026-05-05 13:43 42.11323 12.02853 7353 ft 254 kts 89°
2026-05-05 13:43 42.11006 12.05068 6804 ft 236 kts 121°
2026-05-05 13:44 42.10033 12.06748 6260 ft 222 kts 139°
2026-05-05 13:44 42.08973 12.08192 5712 ft 215 kts 137°
2026-05-05 13:44 42.07980 12.09633 5193 ft 207 kts 136°
2026-05-05 13:44 42.07042 12.11034 4745 ft 199 kts 135°
2026-05-05 13:45 42.06131 12.12386 4297 ft 190 kts 135°
2026-05-05 13:45 42.05262 12.13652 3859 ft 184 kts 135°
2026-05-05 13:45 42.04414 12.14895 3474 ft 175 kts 135°
2026-05-05 13:45 42.03616 12.16067 3144 ft 165 kts 135°
2026-05-05 13:46 42.02869 12.17164 2924 ft 158 kts 136°
2026-05-05 13:46 42.02124 12.18255 2664 ft 159 kts 135°
2026-05-05 13:46 42.01311 12.19218 2625 ft 156 kts 154°
2026-05-05 13:46 42.00274 12.19641 2630 ft 157 kts 168°
2026-05-05 13:47 41.99233 12.20002 2623 ft 155 kts 163°
2026-05-05 13:47 41.98192 12.20463 2626 ft 157 kts 162°
2026-05-05 13:47 41.97141 12.20909 2623 ft 156 kts 163°
2026-05-05 13:47 41.96106 12.21341 2629 ft 154 kts 163°
2026-05-05 13:48 41.95128 12.21753 2662 ft 141 kts 163°
2026-05-05 13:48 41.94194 12.22145 2540 ft 140 kts 163°
2026-05-05 13:48 41.93280 12.22526 2280 ft 136 kts 163°
2026-05-05 13:48 41.92378 12.22903 2037 ft 135 kts 162°
2026-05-05 13:49 41.91488 12.23277 1765 ft 136 kts 162°
2026-05-05 13:49 41.90568 12.23660 1415 ft 140 kts 162°
2026-05-05 13:49 41.89644 12.24047 1165 ft 140 kts 162°
2026-05-05 13:49 41.88709 12.24433 921 ft 141 kts 161°
2026-05-05 13:50 41.87766 12.24831 694 ft 140 kts 161°
2026-05-05 13:50 41.86840 12.25214 506 ft 139 kts 162°
2026-05-05 13:50 41.85914 12.25594 289 ft 139 kts 162°
2026-05-05 13:50 41.84993 12.25990 101 ft 137 kts 163°
2026-05-05 13:51 41.84113 12.26349 17 ft 126 kts 163°
2026-05-05 13:51 41.83371 12.26663 11 ft 91 kts 162°
2026-05-05 13:51 41.82872 12.26874 10 ft 60 kts 162°
2026-05-05 13:51 41.82467 12.27036 10 ft 60 kts 165°
2026-05-05 13:52 41.82145 12.27128 10 ft 31 kts 174°
2026-05-05 13:52 41.81992 12.27116 11 ft 17 kts 190°
2026-05-05 13:52 41.81877 12.27084 11 ft 17 kts 191°
2026-05-05 13:52 41.81757 12.27050 11 ft 17 kts 188°
2026-05-05 13:53 41.81639 12.27065 11 ft 16 kts 162°
2026-05-05 13:53 41.81533 12.27111 11 ft 15 kts 163°
2026-05-05 13:53 41.81433 12.27150 12 ft 14 kts 163°
2026-05-05 13:53 41.81335 12.27191 12 ft 15 kts 161°
2026-05-05 13:54 41.81234 12.27236 12 ft 15 kts 163°
2026-05-05 13:54 41.81135 12.27275 12 ft 15 kts 162°
2026-05-05 13:54 41.81020 12.27324 12 ft 17 kts 162°
2026-05-05 13:54 41.80906 12.27346 12 ft 15 kts 183°
2026-05-05 13:55 41.80802 12.27326 12 ft 14 kts 190°
2026-05-05 13:55 41.80707 12.27295 13 ft 13 kts 206°
2026-05-05 13:55 41.80649 12.27203 13 ft 13 kts 247°
2026-05-05 13:55 41.80616 12.27080 13 ft 15 kts 250°
2026-05-05 13:56 41.80576 12.26940 13 ft 16 kts 249°
2026-05-05 13:56 41.80540 12.26802 14 ft 15 kts 250°
2026-05-05 13:56 41.80504 12.26674 14 ft 14 kts 249°
2026-05-05 13:56 41.80470 12.26559 15 ft 12 kts 247°
2026-05-05 13:57 41.80440 12.26462 15 ft 10 kts 249°
2026-05-05 13:57 41.80421 12.26374 15 ft 9 kts 258°
2026-05-05 13:57 41.80408 12.26289 15 ft 11 kts 251°
2026-05-05 13:57 41.80367 12.26200 15 ft 9 kts 208°
2026-05-05 13:58 41.80324 12.26228 15 ft 6 kts 119°
2026-05-05 13:58 41.80289 12.26241 15 ft 5 kts 202°
2026-05-05 13:58 41.80271 12.26230 15 ft 0 kts 204°